Regional Weather Roundup
Issued by NWS

Home | Current Version | Previous Version | Text Only | Print | Product List | Glossary On
Versions: 1 2 3 4 5 6 7 8 9 10 11 12 13 14 15 16 17 18 19 20 21 22 23 24 25 26 27 28 29 30 31 32 33 34 35 36 37 38 39 40 41 42 43 44 45 46 47 48 49 50
000
ASUS44 KFWD 271803
RWRTX
NORTH TEXAS HOURLY WEATHER ROUNDUP
NATIONAL WEATHER SERVICE FORT WORTH TX
100 PM CDT SAT AUG 27 2016

NOTE: "FAIR" INDICATES FEW OR NO CLOUDS BELOW 12,000 FEET WITH NO
SIGNIFICANT WEATHER AND/OR OBSTRUCTIONS TO VISIBILITY.

TXZ118-119-271900-
DALLAS/FORT WORTH METROPLEX

CITY           SKY/WX    TMP DP  RH WIND       PRES   REMARKS
DFW AIRPORT    PTSUNNY   87  69  54 S5        30.01F HX  91
6HR MIN TEMP:  73; 6HR MAX TEMP:  88;

DALLAS LOVE    MOSUNNY   88  70  55 VRB3      30.01F HX  93
6HR MIN TEMP:  75; 6HR MAX TEMP:  89;

FTW MEACHAM    SUNNY     89  71  55 VRB7      30.01F HX  95
6HR MIN TEMP:  74; 6HR MAX TEMP:  89;

DAL-EXECUTIVE  SUNNY     88  73  61 MISG      30.01F HX  95
6HR MIN TEMP:  72; 6HR MAX TEMP:  89;

FTW-ALLIANCE   MOSUNNY   89  70  53 SE5       30.01F HX  94
6HR MIN TEMP:  70; 6HR MAX TEMP:  89;

FTW-NAS-JRB    MOSUNNY   88  70  55 VRB6      30.01F HX  93
6HR MIN TEMP:  74; 6HR MAX TEMP:  88;

FTW-SPINKS     MOSUNNY   88  72  58 E7        30.03F HX  94
ARLINGTON      SUNNY     87  69  54 S5        30.02F HX  91
6HR MIN TEMP:  71; 6HR MAX TEMP:  87;

GRAND PRAIRIE  SUNNY     88  68  51 CALM      30.03F HX  91
ADDISON        MOSUNNY   88  70  55 CALM      30.03F HX  92
MESQUITE       MOSUNNY   84  72  65 E6        30.03F
LANCASTER      MOSUNNY   88  70  54 CALM      30.03F HX  92
6HR MIN TEMP:  71; 6HR MAX TEMP:  89;

$$

TXZ091>094-102>105-117-120-121-131>134-271900-
NORTH CENTRAL TEXAS

CITY           SKY/WX    TMP DP  RH WIND       PRES   REMARKS
SHRMAN/DENISON NOT AVBL
GAINESVILLE      N/A     85  69  58 SE5       30.05F
6HR MIN TEMP:  68; 6HR MAX TEMP:  86;

BOWIE          PTSUNNY   89  71  56 E6        30.03F HX  95
6HR MIN TEMP:  70; 6HR MAX TEMP:  89;

BRIDGEPORT     MOSUNNY   86  73  66 S3        30.04F HX  93
6HR MIN TEMP:  69; 6HR MAX TEMP:  87;

DECATUR        MOSUNNY   87  70  57 E6        30.03F HX  91
6HR MIN TEMP:  70; 6HR MAX TEMP:  87;

DENTON         MOSUNNY   87  72  60 CALM      30.01F HX  93
6HR MIN TEMP:  71; 6HR MAX TEMP:  88;

MCKINNEY       CLOUDY    85  70  60 E3        30.03F
6HR MIN TEMP:  70; 6HR MAX TEMP:  85;

GREENVILLE     CLOUDY    82  70  65 CALM      30.04F
ROCKWALL       CLOUDY    85  73  67 CALM      30.02F HX  92
6HR MIN TEMP:  71; 6HR MAX TEMP:  85;

TERRELL        CLOUDY    83  72  69 CALM      30.03F
6HR MIN TEMP:  72; 6HR MAX TEMP:  83;

WAXAHACHIE     MOSUNNY   87  73  62 CALM      30.03F HX  94
6HR MIN TEMP:  70; 6HR MAX TEMP:  87;

CLEBURNE       MOSUNNY   86  75  70 SE5       30.03F HX  95
GRANBURY       MOSUNNY   90  71  54 E7        30.02F HX  96
6HR MIN TEMP:  73; 6HR MAX TEMP:  90;

$$

TXZ083>090-098>101-113>116-127>130-139>142-154-155-271900-
WESTERN NORTH TEXAS

CITY           SKY/WX    TMP DP  RH WIND       PRES   REMARKS
WICHITA FALLS  SUNNY     89  70  53 S9        30.01F HX  94
6HR MIN TEMP:  70; 6HR MAX TEMP:  90;

WF-KICKAPOO    SUNNY     89  69  50 E6        30.03F HX  93
6HR MIN TEMP:  72; 6HR MAX TEMP:  89;

VERNON         CLOUDY    86  64  47 CALM      30.03F
6HR MIN TEMP:  71; 6HR MAX TEMP:  91;

ABILENE        SUNNY     88  68  51 CALM      30.05F HX  91
6HR MIN TEMP:  73; 6HR MAX TEMP:  88;

ABILENE-DYESS  SUNNY     89  67  48 VRB5      30.02F HX  92
6HR MIN TEMP:  74; 6HR MAX TEMP:  89;

CISCO          MOSUNNY   88  68  51 SW8       30.04F HX  91
GRAHAM         SUNNY     89  71  55 SE5       30.00F HX  95
6HR MIN TEMP:  71; 6HR MAX TEMP:  89;

MINERAL WELLS  SUNNY     87  72  60 VRB6      30.00F HX  93
6HR MIN TEMP:  69; 6HR MAX TEMP:  87;

STEPHENVILLE   MOSUNNY   87  70  56 SE5       30.05F HX  92
6HR MIN TEMP:  70; 6HR MAX TEMP:  87;

COMANCHE       PTSUNNY   89  70  53 SE5       30.04F HX  93
6HR MIN TEMP:  70; 6HR MAX TEMP:  89;

BROWNWOOD      SUNNY     86  68  54 E5        30.03F
COLEMAN        MOSUNNY   87  67  51 SW5       30.04F HX  90
6HR MIN TEMP:  71; 6HR MAX TEMP:  88;

$$

TXZ143>147-156>162-174-175-271900-
CENTRAL TEXAS

CITY           SKY/WX    TMP DP  RH WIND       PRES   REMARKS
WACO           PTSUNNY   87  73  62 VRB3      30.02F HX  94
6HR MIN TEMP:  72; 6HR MAX TEMP:  88;

WACO-TSTC      MOSUNNY   86  72  62 CALM      30.01F HX  92
WACO-MCGREGOR  MOSUNNY   87  72  60 VRB7      30.02  HX  93
6HR MIN TEMP:  71; 6HR MAX TEMP:  87;

HILLSBORO      PTSUNNY   86  71  60 S7        30.02F HX  91
6HR MIN TEMP:  70; 6HR MAX TEMP:  87;

CORSICANA      CLOUDY    86  72  62 VRB5      30.03F HX  92
6HR MIN TEMP:  75; 6HR MAX TEMP:  86;

MEXIA          CLOUDY    83  70  64 CALM      30.02F
6HR MIN TEMP:  73; 6HR MAX TEMP:  83;

HEARNE         CLOUDY    86  72  62 MISG      30.01F HX  92
6HR MIN TEMP:  71; 6HR MAX TEMP:  86;

CAMERON        MOSUNNY   87  71  60 E6        30.01F HX  92
6HR MIN TEMP:  72; 6HR MAX TEMP:  87;

TEMPLE         CLOUDY    86  74  67 E9        30.02F HX  94
6HR MIN TEMP:  70; 6HR MAX TEMP:  86;

KILLEEN        PTSUNNY   85  72  65 E6        30.01F HX  90
6HR MIN TEMP:  72; 6HR MAX TEMP:  86;

KILLEEN-SKYLRK PTSUNNY   86  73  65 E8        30.02F HX  93
6HR MIN TEMP:  71; 6HR MAX TEMP:  87;

FORT HOOD      MOSUNNY   86  71  61 S5        30.00F HX  91
6HR MIN TEMP:  71; 6HR MAX TEMP:  86;

HAMILTON       PTSUNNY   88  71  58 E7        30.04F HX  94
6HR MIN TEMP:  70; 6HR MAX TEMP:  88;

LAMPASAS       SUNNY     85  73  66 SE5       30.02F HX  92
6HR MIN TEMP:  71; 6HR MAX TEMP:  88;

$$

TXZ095>097-106>112-122>126-135>138-148>153-164>167-271900-
EAST TEXAS

CITY           SKY/WX    TMP DP  RH WIND       PRES   REMARKS
PARIS          CLOUDY    82  73  74 CALM      30.04F
6HR MIN TEMP:  73; 6HR MAX TEMP:  82; 6HR PCP:  0.09;

SULPHUR SPRNGS PTSUNNY   85  73  67 NW3       30.04F HX  91
6HR MIN TEMP:  74; 6HR MAX TEMP:  85;

MOUNT PLEASANT MOSUNNY   88  72  58 SW3       30.03F HX  94
6HR MIN TEMP:  75; 6HR MAX TEMP:  88; 6HR PCP:  0.01;

GILMER         CLOUDY    86  73  64 CALM      30.02F THUNDER HX  93
6HR MIN TEMP:  73; 6HR MAX TEMP:  86;

TYLER          CLOUDY    87  71  58 CALM      30.01F HX  93
6HR MIN TEMP:  73; 6HR MAX TEMP:  88;

LONGVIEW       MOSUNNY   86  72  62 CALM      30.01F HX  92
6HR MIN TEMP:  73; 6HR MAX TEMP:  86;

MARSHALL         N/A    N/A N/A N/A MISG        N/A
ATHENS         CLOUDY    82  72  69 CALM      30.01F
PALESTINE      CLOUDY    84  75  74 E5        30.03F HX  91
JACKSONVILLE   CLOUDY    83  75  77 NE6       30.04F HX  91
HENDERSON      PTSUNNY   86  74  67 N5        30.02F HX  94
6HR MIN TEMP:  73; 6HR MAX TEMP:  87;

CENTER         CLOUDY    88  74  63 NE5       30.01F HX  97
6HR MIN TEMP:  74; 6HR MAX TEMP:  89;

NACOGDOCHES    CLOUDY   N/A N/A N/A E7        29.98F
LUFKIN         CLOUDY    85  76  74 VRB5      29.99F HX  94
6HR MIN TEMP:  73; 6HR MAX TEMP:  85;

$$

SUPPLEMENTAL OBSERVATIONS (CENTRAL)

CITY           SKY/WX    TMP DP  RH WIND       PRES   REMARKS
$$

SUPPLEMENTAL OBSERVATIONS (WEST)

CITY           SKY/WX    TMP DP  RH WIND       PRES   REMARKS
$$

SUPPLEMENTAL OBSERVATIONS (EAST)

CITY           SKY/WX    TMP DP  RH WIND       PRES   REMARKS
$$

SUPPLEMENTAL OBSERVATIONS ARE A COLLECTION OF AUTOMATED INSTRUMENTS
THAT ARE MAINTAINED BY A VARIETY OF FEDERAL AND STATE AGENCIES.
CERTAIN ELEMENTS...SUCH AS HUMIDITY VALUES AND SUSTAINED WIND
SPEEDS...MAY BE APPROXIMATED.





USA.gov is the U.S. government's official web portal to all federal, state and local government web resources and services.